TimeCST,TemperatureF,Dew PointF,Humidity,Sea Level PressureIn,VisibilityMPH,Wind Direction,Wind SpeedMPH,Gust SpeedMPH,PrecipitationIn,Events,Conditions,WindDirDegrees,DateUTC
12:10 AM,32.0,28.4,87,30.14,10.0,SSW,9.2,-,N/A,,Clear,200,2013-11-08 06:10:00
12:30 AM,32.0,28.4,87,30.13,10.0,SSW,8.1,-,N/A,,Clear,200,2013-11-08 06:30:00
12:50 AM,28.4,28.4,100,30.13,10.0,SSE,6.9,-,N/A,,Clear,160,2013-11-08 06:50:00
1:10 AM,28.4,28.4,100,30.12,10.0,SSE,6.9,-,N/A,,Clear,160,2013-11-08 07:10:00
1:30 AM,28.4,28.4,100,30.11,10.0,SSE,8.1,-,N/A,,Clear,160,2013-11-08 07:30:00
1:50 AM,28.4,28.4,100,30.10,10.0,South,8.1,-,N/A,,Clear,170,2013-11-08 07:50:00
2:10 AM,28.4,28.4,100,30.10,10.0,SSE,9.2,-,N/A,,Clear,160,2013-11-08 08:10:00
2:30 AM,28.4,28.4,100,30.08,10.0,SSE,9.2,-,N/A,,Clear,160,2013-11-08 08:30:00
2:50 AM,28.4,28.4,100,30.07,10.0,SSE,12.7,-,N/A,,Clear,150,2013-11-08 08:50:00
3:10 AM,28.4,28.4,100,30.05,10.0,SSE,12.7,-,N/A,,Clear,160,2013-11-08 09:10:00
3:30 AM,28.4,28.4,100,30.03,10.0,SSE,10.4,-,N/A,,Clear,160,2013-11-08 09:30:00
3:50 AM,28.4,28.4,100,30.03,10.0,South,11.5,-,N/A,,Clear,170,2013-11-08 09:50:00
4:10 AM,28.4,28.4,100,30.01,10.0,South,11.5,-,N/A,,Mostly Cloudy,170,2013-11-08 10:10:00
4:30 AM,28.4,28.4,100,30.00,10.0,SSE,11.5,17.3,N/A,,Overcast,160,2013-11-08 10:30:00
4:50 AM,30.2,28.4,93,29.99,10.0,SSE,12.7,18.4,N/A,,Overcast,160,2013-11-08 10:50:00
5:10 AM,30.2,30.2,100,29.97,10.0,SSE,11.5,-,N/A,,Overcast,160,2013-11-08 11:10:00
5:30 AM,32.0,30.2,93,29.95,10.0,SSE,13.8,-,N/A,,Overcast,160,2013-11-08 11:30:00
5:50 AM,32.0,32.0,100,29.93,10.0,SSE,15.0,-,N/A,,Overcast,160,2013-11-08 11:50:00
6:10 AM,32.0,32.0,100,29.91,10.0,SSE,16.1,21.9,N/A,,Mostly Cloudy,150,2013-11-08 12:10:00
6:30 AM,32.0,32.0,100,29.89,10.0,SSE,16.1,23.0,N/A,,Scattered Clouds,150,2013-11-08 12:30:00
6:50 AM,32.0,32.0,100,29.87,10.0,SSE,18.4,24.2,N/A,,Mostly Cloudy,150,2013-11-08 12:50:00
7:10 AM,32.0,32.0,100,29.85,10.0,SSE,17.3,23.0,N/A,,Partly Cloudy,150,2013-11-08 13:10:00
7:30 AM,32.0,32.0,100,29.83,10.0,SSE,18.4,27.6,N/A,,Clear,150,2013-11-08 13:30:00
7:50 AM,35.6,32.0,87,29.81,10.0,SSE,23.0,31.1,N/A,,Clear,150,2013-11-08 13:50:00
8:10 AM,33.8,32.0,93,29.79,10.0,SSE,23.0,32.2,N/A,,Scattered Clouds,150,2013-11-08 14:10:00
8:30 AM,35.6,32.0,87,29.79,10.0,SSE,20.7,32.2,N/A,,Overcast,160,2013-11-08 14:30:00
8:50 AM,37.4,32.0,81,29.77,10.0,SSE,24.2,34.5,N/A,,Overcast,160,2013-11-08 14:50:00
9:10 AM,37.4,32.0,81,29.76,10.0,SSE,21.9,31.1,N/A,,Scattered Clouds,160,2013-11-08 15:10:00
9:30 AM,35.6,32.0,87,29.75,10.0,SSE,23.0,32.2,N/A,,Clear,160,2013-11-08 15:30:00
9:50 AM,37.4,32.0,81,29.73,10.0,South,23.0,31.1,N/A,,Clear,170,2013-11-08 15:50:00
10:10 AM,37.4,32.0,81,29.72,10.0,South,23.0,29.9,N/A,,Clear,170,2013-11-08 16:10:00
10:30 AM,37.4,32.0,81,29.71,10.0,SSE,20.7,26.5,N/A,,Clear,160,2013-11-08 16:30:00
10:50 AM,37.4,32.0,81,29.70,10.0,South,18.4,27.6,N/A,,Clear,170,2013-11-08 16:50:00
11:10 AM,37.4,32.0,81,29.68,10.0,South,19.6,26.5,N/A,,Clear,170,2013-11-08 17:10:00
11:30 AM,37.4,33.8,87,29.66,10.0,SSE,20.7,26.5,N/A,,Clear,160,2013-11-08 17:30:00
11:50 AM,37.4,35.6,93,29.65,10.0,South,21.9,26.5,N/A,,Clear,180,2013-11-08 17:50:00
12:10 PM,37.4,35.6,93,29.63,10.0,South,23.0,28.8,N/A,,Clear,180,2013-11-08 18:10:00
12:30 PM,37.4,35.6,93,29.62,10.0,South,20.7,27.6,N/A,,Clear,180,2013-11-08 18:30:00
12:50 PM,37.4,37.4,100,29.60,10.0,South,19.6,-,N/A,,Clear,190,2013-11-08 18:50:00
1:10 PM,39.2,37.4,93,29.60,10.0,South,21.9,26.5,N/A,,Clear,190,2013-11-08 19:10:00
1:30 PM,39.2,39.2,100,29.59,10.0,South,16.1,-,N/A,,Clear,190,2013-11-08 19:30:00
1:50 PM,41.0,39.2,93,29.58,10.0,South,18.4,-,N/A,,Clear,190,2013-11-08 19:50:00
2:10 PM,41.0,41.0,100,29.58,10.0,SSW,15.0,-,N/A,,Clear,200,2013-11-08 20:10:00
2:30 PM,42.8,41.0,93,29.58,10.0,SSW,13.8,21.9,N/A,,Clear,200,2013-11-08 20:30:00
2:50 PM,44.6,42.8,93,29.59,10.0,SSW,19.6,-,N/A,,Clear,210,2013-11-08 20:50:00
3:10 PM,46.4,44.6,93,29.59,10.0,SW,16.1,21.9,N/A,,Clear,220,2013-11-08 21:10:00
3:30 PM,46.4,44.6,93,29.59,10.0,SSW,11.5,-,N/A,,Clear,210,2013-11-08 21:30:00
3:50 PM,48.2,46.4,93,29.59,10.0,SW,10.4,-,N/A,,Clear,220,2013-11-08 21:50:00
4:10 PM,48.2,44.6,87,29.61,10.0,West,17.3,24.2,N/A,,Partly Cloudy,280,2013-11-08 22:10:00
4:30 PM,48.2,42.8,82,29.62,10.0,West,12.7,26.5,N/A,,Mostly Cloudy,280,2013-11-08 22:30:00
4:50 PM,46.4,46.4,100,29.64,10.0,WNW,27.6,32.2,N/A,,Scattered Clouds,300,2013-11-08 22:50:00
5:10 PM,44.6,44.6,100,29.64,10.0,WNW,17.3,25.3,N/A,,Mostly Cloudy,300,2013-11-08 23:10:00
5:30 PM,44.6,44.6,100,29.65,10.0,WNW,13.8,19.6,N/A,,Mostly Cloudy,290,2013-11-08 23:30:00
5:50 PM,44.6,44.6,100,29.66,10.0,West,11.5,18.4,N/A,,Partly Cloudy,270,2013-11-08 23:50:00
6:10 PM,42.8,42.8,100,29.66,10.0,West,9.2,-,N/A,,Clear,270,2013-11-09 00:10:00
6:30 PM,44.6,44.6,100,29.66,10.0,West,13.8,19.6,N/A,,Mostly Cloudy,270,2013-11-09 00:30:00
6:50 PM,44.6,44.6,100,29.67,10.0,West,18.4,-,N/A,,Overcast,280,2013-11-09 00:50:00
7:10 PM,44.6,44.6,100,29.68,10.0,WNW,20.7,28.8,N/A,,Overcast,290,2013-11-09 01:10:00
7:30 PM,44.6,44.6,100,29.68,10.0,West,15.0,28.8,N/A,,Overcast,280,2013-11-09 01:30:00
7:50 PM,44.6,42.8,93,29.68,10.0,WNW,24.2,34.5,N/A,,Overcast,290,2013-11-09 01:50:00
8:10 PM,44.6,44.6,100,29.69,10.0,WNW,19.6,28.8,N/A,,Overcast,290,2013-11-09 02:10:00
8:30 PM,44.6,44.6,100,29.70,10.0,WNW,17.3,25.3,N/A,,Overcast,290,2013-11-09 02:30:00
8:50 PM,44.6,44.6,100,29.70,10.0,WNW,18.4,26.5,N/A,,Overcast,290,2013-11-09 02:50:00
9:10 PM,44.6,44.6,100,29.71,10.0,WNW,13.8,20.7,N/A,,Overcast,290,2013-11-09 03:10:00
9:30 PM,44.6,44.6,100,29.72,10.0,West,12.7,21.9,N/A,,Overcast,280,2013-11-09 03:30:00
9:50 PM,44.6,44.6,100,29.73,10.0,West,13.8,20.7,N/A,,Overcast,270,2013-11-09 03:50:00
10:10 PM,42.8,42.8,100,29.73,10.0,West,13.8,17.3,N/A,,Overcast,270,2013-11-09 04:10:00
10:30 PM,44.6,42.8,93,29.74,10.0,West,15.0,20.7,N/A,,Overcast,260,2013-11-09 04:30:00
10:50 PM,42.8,42.8,100,29.74,10.0,West,11.5,19.6,N/A,,Overcast,270,2013-11-09 04:50:00
11:10 PM,42.8,41.0,93,29.75,10.0,West,16.1,-,N/A,,Mostly Cloudy,260,2013-11-09 05:10:00
11:30 PM,41.0,41.0,100,29.75,10.0,West,15.0,19.6,N/A,,Partly Cloudy,260,2013-11-09 05:30:00
11:50 PM,41.0,39.2,93,29.75,10.0,West,16.1,24.2,N/A,,Clear,260,2013-11-09 05:50:00